DW8004 Weather Reports


time (UTC)temp
C
wind
direction
speed
KPH
gust
KPH
rain 1hr
cm
rain 24hr
cm
rain mn
cm
humidity
%
barometer
mb
20260906001619 15 107 0.0 0.0 0.00 0.03 0.03 95 1011.7
20260906000045 15 107 0.0 0.0 0.00 0.03 0.03 94 1011.6
20260905234532 16 107 0.0 0.0 0.00 0.03 0.03 94 1011.4
20260905233114 16 107 0.0 0.0 0.00 0.03 0.03 94 1011.3
20260905231555 16 107 0.0 0.0 0.00 0.03 0.03 93 1011.2
20260905230050 16 107 0.0 0.0 0.00 0.03 0.03 93 1011.0
20260905224600 17 107 0.0 0.0 0.00 0.03 0.03 93 1011.0
20260905223030 17 107 0.0 0.0 0.00 0.03 0.03 93 1010.9
20260905221539 17 107 0.0 0.0 0.00 0.03 0.03 93 1010.9
20260905220110 17 107 0.0 0.0 0.00 0.03 0.03 93 1010.8
20260905214539 17 107 0.0 0.0 0.00 0.03 0.03 92 1010.7
20260905213005 17 107 0.0 0.0 0.03 0.03 0.03 92 1010.5
20260905211550 17 107 0.0 0.0 0.03 0.03 0.03 91 1010.4
20260905210109 17 107 0.0 0.0 0.03 0.03 0.03 91 1010.3
20260905204548 17 107 0.0 0.0 0.03 0.03 0.03 86 1010.3
20260905203058 18 17 0.0 0.0 0.00 0.00 0.00 82 1010.2
20260905201540 17 304 0.0 0.0 0.00 0.00 0.00 85 1010.0
20260905200021 17 304 0.0 0.0 0.00 0.00 0.00 87 1010.0
20260905194612 18 304 0.0 0.0 0.00 0.00 0.00 84 1009.9
20260905193040 18 224 0.0 0.0 0.00 0.00 0.00 78 1010.0
20260905191513 19 223 0.0 0.0 0.00 0.00 0.00 77 1009.9
20260905190009 19 338 0.0 0.0 0.00 0.00 0.00 77 1009.8
20260905184536 19 338 0.0 0.0 0.00 0.00 0.00 75 1010.0
20260905183004 19 234 0.0 0.0 0.00 0.00 0.00 76 1009.9
20260905181543 19 234 0.0 0.0 0.00 0.00 0.00 74 1009.9
20260905180010 19 221 0.0 0.0 0.00 0.00 0.00 73 1009.9
20260905174601 19 185 0.0 0.0 0.00 0.00 0.00 75 1009.9
20260905173032 18 238 0.0 0.0 0.00 0.00 0.00 76 1009.9
20260905171607 18 215 0.0 0.0 0.00 0.00 0.00 75 1009.8
20260905170058 18 59 0.0 0.0 0.00 0.00 0.00 74 1009.8
20260905164525 18 138 0.0 0.0 0.00 0.00 0.00 75 1009.8
20260905163010 18 115 0.0 0.0 0.00 0.00 0.00 74 1009.9
20260905161554 19 204 0.0 0.0 0.00 0.00 0.00 72 1009.9
20260905160053 19 134 0.0 0.0 0.00 0.00 0.00 73 1009.9
20260905154550 18 215 0.0 0.0 0.00 0.00 0.00 76 1009.8
20260905153022 18 228 0.0 0.0 0.00 0.00 0.00 74 1010.0
20260905151551 18 35 0.0 0.0 0.00 0.00 0.00 78 1009.9
20260905150034 18 141 0.0 0.0 0.00 0.00 0.00 81 1010.1
20260905144554 18 38 0.0 0.0 0.00 0.00 0.00 78 1010.1
20260905143024 18 188 0.0 0.0 0.00 0.00 0.00 80 1010.0
20260905141511 17 142 0.0 0.0 0.00 0.00 0.00 81 1010.2
20260905134551 16 217 0.0 0.0 0.00 0.00 0.00 85 1010.3
20260905133010 16 190 0.0 0.0 0.00 0.00 0.00 85 1010.4
20260905131611 17 260 0.0 0.0 0.00 0.00 0.00 83 1010.4
20260905130046 17 9 0.0 0.0 0.00 0.00 0.00 83 1010.3
20260905124537 16 157 0.0 0.0 0.00 0.00 0.00 88 1010.2
20260905123009 15 235 0.0 0.0 0.00 0.00 0.00 92 1010.1
20260905121548 15 94 0.0 0.0 0.00 0.00 0.00 95 1010.0
20260905120045 13 94 0.0 0.0 0.00 0.00 0.00 97 1009.8
20260905114511 12 94 0.0 0.0 0.00 0.00 0.00 98 1009.7
20260905113054 11 93 0.0 0.0 0.00 0.00 0.00 98 1009.5
20260905111532 10 93 0.0 0.0 0.00 0.00 0.00 97 1009.5
20260905104549 10 93 0.0 0.0 0.00 0.00 0.00 97 1009.4
20260905103032 10 93 0.0 0.0 0.00 0.00 0.00 97 1009.2
20260905101612 10 93 0.0 0.0 0.00 0.00 0.00 97 1009.1
20260905100055 10 93 0.0 0.0 0.00 0.00 0.00 97 1009.1
20260905094606 10 93 0.0 0.0 0.00 0.00 0.00 97 1008.9
20260905093043 10 93 0.0 0.0 0.00 0.00 0.00 97 1009.0
20260905091526 10 94 0.0 0.0 0.00 0.00 0.00 97 1009.0
20260905090104 10 93 0.0 0.0 0.00 0.00 0.00 97 1009.0
20260905084611 11 93 0.0 0.0 0.00 0.00 0.00 97 1008.9
20260905083044 11 93 0.0 0.0 0.00 0.00 0.00 97 1008.9
20260905081527 11 93 0.0 0.0 0.00 0.00 0.00 97 1008.9
20260905080002 11 93 0.0 0.0 0.00 0.00 0.00 96 1008.8
20260905074554 11 93 0.0 0.0 0.00 0.00 0.00 96 1008.9
20260905073102 11 93 0.0 0.0 0.00 0.00 0.00 96 1009.1
20260905071559 11 93 0.0 0.0 0.00 0.00 0.00 96 1009.2
20260905070043 11 93 0.0 0.0 0.00 0.00 0.00 96 1009.2
20260905064530 12 93 0.0 0.0 0.00 0.00 0.00 96 1009.3
20260905063006 12 93 0.0 0.0 0.00 0.00 0.00 96 1009.1
20260905061614 12 93 0.0 0.0 0.00 0.00 0.00 96 1009.2
20260905060042 12 93 0.0 0.0 0.00 0.00 0.00 96 1009.2
20260905054559 12 93 0.0 0.0 0.00 0.00 0.00 96 1009.3
20260905053054 12 93 0.0 0.0 0.00 0.00 0.00 95 1009.3
20260905051552 12 93 0.0 0.0 0.00 0.00 0.00 95 1009.5
20260905050044 12 93 0.0 0.0 0.00 0.00 0.00 95 1009.5
20260905044536 13 93 0.0 0.0 0.00 0.00 0.00 95 1009.4
20260905043118 13 93 0.0 0.0 0.00 0.00 0.00 95 1009.7
20260905041546 13 93 0.0 0.0 0.00 0.00 0.00 95 1009.6
20260905040140 13 93 0.0 0.0 0.00 0.00 0.00 95 1009.4
20260905034526 13 93 0.0 0.0 0.00 0.00 0.00 94 1009.4
20260905033007 13 93 0.0 0.0 0.00 0.00 0.00 94 1009.7
20260905031529 13 93 0.0 0.0 0.00 0.00 0.00 94 1009.7
20260905030033 13 93 0.0 0.0 0.00 0.00 0.00 94 1009.6
20260905024504 14 93 0.0 0.0 0.00 0.00 0.00 93 1009.4
20260905023113 15 93 0.0 0.0 0.00 0.00 0.00 92 1009.7
20260905021554 15 93 0.0 0.0 0.00 0.00 0.00 92 1009.7
20260905020059 15 93 0.0 0.0 0.00 0.00 0.00 91 1009.9
20260905014552 15 93 0.0 0.0 0.00 0.00 0.00 91 1009.9
20260905013058 16 93 0.0 0.0 0.00 0.00 0.00 91 1009.9
20260905011538 16 93 0.0 0.0 0.00 0.00 0.00 90 1009.6
20260905010051 16 91 0.0 0.0 0.00 0.00 0.00 89 1009.5
20260905004547 16 95 0.0 0.0 0.00 0.00 0.00 90 1009.4
20260905003101 16 95 0.0 0.0 0.00 0.00 0.00 90 1009.3